Regional Weather Roundup
Issued by NWS

Home | Current Version | Previous Version | Graphics & Text | Print | Product List | Glossary Off
Versions: 1 2 3 4 5 6 7 8 9 10 11 12 13 14 15 16 17 18 19 20 21 22 23 24 25 26 27 28 29 30 31 32 33 34 35 36 37 38 39 40 41 42 43 44 45 46 47 48 49 50

904
ASUS43 KTOP 240108
RWRKS

WEATHER ROUNDUP FOR KANSAS
NATIONAL WEATHER SERVICE GOODLAND KS
800 PM CDT THU MAR 23 2017

NOTE:  "FAIR" INDICATES FEW OR NO CLOUDS BELOW 12,000 FEET WITH NO
SIGNIFICANT WEATHER AND/OR OBSTRUCTIONS TO VISIBILITY.

KSZ001>006-013>018-027>032-041>047-240200-
NORTHWEST KANSAS

CITY           SKY/WX    TMP DP  RH WIND       PRES   REMARKS
GOODLAND       CLOUDY    78  23  13 SW20G26   29.48R
HAYS             N/A     75  52  44 S26G35    29.56
HILL CITY      CLOUDY    76  51  41 S21G31    29.54R
RUSSELL        CLOUDY    75  50  41 S26G41    29.57S
$$

KSZ061>065-074>080-084>089-240200-
SOUTHWEST KANSAS

CITY           SKY/WX    TMP DP  RH WIND       PRES   REMARKS
DODGE CITY     CLOUDY    74  46  36 S23G35    29.59R HAZE
ELKHART          N/A     58  42  55 W36         N/A
GARDEN CITY    CLOUDY    75  47  36 S21G26    29.58R
GREAT BEND     CLOUDY    75  50  41 S30G37    29.59S
LIBERAL        CLOUDY    75  48  38 S25G36    29.58R
PRATT          PTCLDY    72  47  40 S23G31    29.63S
$$

KSZ066>073-081>083-090>101-240200-
SOUTHEAST KANSAS

CITY           SKY/WX    TMP DP  RH WIND       PRES   REMARKS
CHANUTE        CLEAR     72  49  44 SE16      29.79S
COFFEYVILLE    CLEAR     75  52  44 S18       29.80S
HUTCHINSON     CLEAR     75  48  38 S17G28    29.65S
MEDICINE LODGE   N/A     76  46  34 S22G32    29.61F
NEWTON         CLEAR     74  49  41 S21G31    29.67F
PARSONS        CLEAR     74  50  42 S12G22    29.80F
WICHITA INTL   PTCLDY    75  48  38 S22G30    29.67S
WICHITA JABRA  CLEAR     76  47  35 S23G32    29.67F
WICHITA MCCONL CLEAR     76  47  35 S18       29.68F
WINFIELD       CLEAR     76  46  34 S21G32    29.72F
$$

KSZ007>012-019>026-033>040-048>060-102>105-240200-
NORTHEAST KANSAS

CITY           SKY/WX    TMP DP  RH WIND       PRES   REMARKS
CONCORDIA      CLOUDY    73  55  53 S15G23    29.63R
EMPORIA        CLEAR     70  51  51 SE18G26   29.72F
LAWRENCE       CLEAR     72  47  40 SE15      29.76R
MANHATTAN      MOCLDY    76  50  40 S16G24    29.68R
MARYSVILLE     CLOUDY    72  52  49 S17G23    29.65F
OLATHE IND     CLEAR     71  45  39 S18G29    29.78S
OLATHE EXE     CLEAR     70  45  40 S14G24    29.78F
SALINA         PTCLDY    78  50  37 S15G29    29.64R
TOPEKA BILLARD CLEAR     73  50  44 S20G28    29.73S
TOPEKA FORBES  CLEAR     73  50  44 S18G28    29.74R
$$




USA.gov is the U.S. government's official web portal to all federal, state and local government web resources and services.